Погода в Жезказгане

Погода в Жезказгане : погода сейчас, прогноз погоды и архив. Всё, что Вы хотите узнать о погоде в Жезказгане!

Хотите узнать прогноз погоды в Жезказгане? Тогда Вам сюда: Погода в Жезказгане

Поиск расширенной информации на нашем сайте:

Полезная информация:

Другие новости

Новости СМИ2

Главная страница сайта

Новости сайта

03.07.2017

Напоминаем, что на нашем специализированном сайте Метеоцентр.Азия вы можете получить высокодетализированные автоматические прогнозы погоды по пунктам России, СНГ и мира в авиационном формате (включающие направление и скорость ветра, видимость, явления погоды, количество и форму облачности, нижнюю и верхнюю границу облачности).

Рекомендуем:

Погода в Жезказгане - сегодня

Время (UTC), дата Ветер
(°,м/с) 
Видим.   Явления Облачность Т
(°С)
Тd
(°С)
f(%) Тe
(°С)
Pmin
(гПа)
dP
(гПа)
Po
(мм)
O2
(г/м3)
Тmin Tmax R s Состояние
почвы
00 22.05.19 020 (С) 20000 м    8/0 средняя 
[Ac lent]
+7 -3.1 49 +7  1012.2  0.7  728  286           
03 22.05.19 360 (С) 20000 м    8/3 600 м кучево-дожд., средняя 
[Cb cap|Ac lent]
+10.6 -3.4 37 +10  1013.6  1.9  729  283           
06 22.05.19 350 (С) 20000 м    6/6 600 м 
[Sc]
+15.3 -2.3 30 +15  1014.4  1.3  730  279  +6.9         
09 22.05.19 310 (СЗ) 20000 м    8/8 600 м кучево-дожд. 
[Cb cap]
+16.3 -5.5 22 +16  1014.8  0.5  731  278           
12 22.05.19 310 (СЗ) 20000 м    6/6 600 м кучево-дожд. 
[Cb cap]
+17.4 -6.3 19 +17  1015.1  0.5  731  278           
15 22.05.19 320 (СЗ) 20000 м    6/6 600 м кучево-дожд. 
[Cb cap]
+15 -5.5 24 +15  1016.8  1.3  732  280    +18.2       
18 22.05.19 320 (СЗ) 20000 м    5/5 600 м 
[Sc]
+10.2 -3.3 39 +9  1019.5  734  285    +18.2       
21 22.05.19 300 (СЗ) 20000 м    ясно 
+4.8 -3.4 55 +4  1020.7  0.3  734  291           
00 23.05.19 300 (СЗ) 20000 м    ясно 
-0.1 -6 64 -1  1022.5  0.9  735  297           
03 23.05.19 тихо ()   20000 м    ясно 
+13.1 -1.8 36 +13  1021.2  0.8  735  283           
06 23.05.19 040 (СВ) 20000 м    ясно 
+17.2 -3.6 24 +18  1020.3  -0.3  735  279  -0.2         
09 23.05.19 тихо ()   20000 м    4/0 средняя, верхняя 
[Ac lent|Ci fib]
+19.3 -3.8 21 +19  1018.7  -1.3  734  277           
12 23.05.19 220 (ЮЗ) 20000 м    5/0 средняя, верхняя 
[Ac lent|Ci fib]
+21.3 -3.1 19 +21  1017.2  -1.1  733  274           
15 23.05.19 230 (ЮЗ) 20000 м    4/0 средняя 
[Ac lent]
+18.9 -1.2 26 +20  1017.2  -0.4  733  276    +22       
18 23.05.19 тихо ()   20000 м    3/0 средняя 
[Ac lent]
+13.6 +0.1 40 +14  1018.5  0.6  733  281    +22       
21 23.05.19 тихо ()   20000 м    ясно 
+8.4 -1.1 51 +8  1019  -0.3  733  287           
00 24.05.19 тихо ()   20000 м    3/0 верхняя 
[Ci fib]
+4.6 -3 58 +5  1019.2  -0.4  733  291           
03 24.05.19 150 (ЮВ) 20000 м    8/0 верхняя 
[Ci fib]
+15.5 +0.6 36 +16  1017  -0.5  732  279           
06 24.05.19 140 (ЮВ) 20000 м    9/0 верхняя 
[Ci sp]
+20.9 -0.3 24 +21  1015  -1.2  731  274  +4         
09 24.05.19 140 (ЮВ) 20000 м    9/0 верхняя 
[Ci sp]
+22.7 +0.4 23 +23  1011.9  -2.7  729  271           
12 24.05.19 140 (ЮВ) 20000 м    9/0 верхняя 
[Ci sp]
+23 +0.3 22 +23  1010.5  -1.4  728  271           
15 24.05.19 130 (ЮВ) 20000 м    9/0 средняя, верхняя 
[Ac lent|Ci fib]
+19.8 +0.7 28 +20  1009.8  -1  728  273    +23.3       
18 24.05.19 140 (ЮВ) 20000 м    8/0 средняя, верхняя 
[Ac lent|Ci fib]
+14.5 +1 40 +15  1009.8  -0.7  727  278    +23.3       
21 24.05.19 120 (ЮВ) 20000 м    9/0 средняя, верхняя 
[Ac lent|Ci fib]
+11.2 +1.4 51 +12  1009.2  -1.1  726  281           
00 25.05.19 тихо ()   20000 м    9/0 средняя, верхняя 
[Ac lent|Ci fib]
+8.8 +2 62 +9  1008.5  -1  726  283           
Время (UTC), дата Ветер
(°,м/с) 
Видим.   Явления Облачность Т
(°С)
Тd
(°С)
f(%) Тe
(°С)
Pmin
(гПа)
dP
(гПа)
Po
(мм)
O2
(г/м3)
Тmin Tmax R s Состояние
почвы

Для получения пояснительной информации подведите курсор к названию столбца.

ПОГОДА в Жезказгане - архив

Всё, что Вы хотите узнать о погоде в Жезказгане - удобно и подробно!

Выберите нужную дату (начиная с 1 января 2018* года) и нажмите кнопку "Найти".
Будут отображены архивные сводки погоды по пункту Жезказган, начиная с указанной даты.


Отображать данные в формате CSV (для использования в таблицах Excel)


Внимание! Наш архив погоды предназначен исключительно для личного некоммерческого использования в познавательных целях. Если Вам необходимы официальные справки о состоянии погоды (для производственных, юридических, коммерческих и т.п. целей), обращайтесь в органы Росгидромета.

*Примечание: данная дата относится к архиву по метеостанциям СССР (Россия, СНГ, Балтия).
Архив по метеостанциям Зарубежной Европы и Азии (кроме Китая) хранится 10 дней, по другим регионам земного шара (Китай, Африка, Америка, Австралия, Океания) - 1 день.

Жезказган - район местоположения метеостанции


Название, широта, долгота, высота метеостанции:
Жезказган 47.8°ш. 67.7°д. 346 м над ур. моря [Казахстан]

Дополнительная информация

В oтличие oт бoльшинства пoгoдных сайтoв мы публикуем пoдрoбную метеoинфoрмацию в детальнoм прoфессиoнальнoм фoрмате.

Характеристики температуры и влажнoсти вoздуха измеряются на высoте 2 м в тени вдали oт зданий и деревьев.
Скoрoсть ветра измеряется на высoте 10 м (на урoвне рoста челoвека скoрoсть ветра ниже в 1.5-2 раза). Если метеoстанция нахoдится в гoрoде или в лесу, тo скoрoсть ветра занижена на 2-4 м/с пo сравнению с oткрытым местoм. Скoрoсть ветра над акватoриями крупных рек и oзёр, а также на вершинах хoлмoв на 2-5 м/с выше, чем в oбычных услoвиях.
Атмoсфернoе давление в разных тoчках местнoсти мoжет значительнo oтличаться oт давления на метеoстанции, в зависимoсти oт услoвий рельефа (при пoдъёме на 10 м давление пoнижается примернo на 1 мм рт.ст.).